Location: Artiguedieu
(43.5000°N, 0.5454°E)
Time: 09:14:48
(UTC+00:00)

Vanguard 1 Rocket - Pass Details

Date: 02 August 2021
Orbit: 650 x 4226 km, 34.3° (Epoch: 24 September)

Event Time Altitude Azimuth Distance (km) Brightness Sun altitude
Rises 05:30:12 0° 180° (S) 8,437 12.1 6.2°
Reaches altitude 10° 05:41:55 10° 158° (SSE) 7,320 12.1 8.2°
Maximum altitude 05:51:00 13° 136° (SE) 6,661 12.3 9.8°
Drops below altitude 10° 05:59:00 10° 114° (ESE) 6,424 12.7 11.2°
Sets 06:07:16 0° 91° (E) 6,692 13.5 12.6°
